Weather in Tushna

Russia / Ulyanovsk Oblast     54°01′21″N   48°31′09″E
temp.,
°C
wind,
m/s
gust,
m/s
humid.,
%
clouds,
%
prec.,
mm/h
press.,
hPa
HPBL,
m
4 march, thu
thu401:00−9w499498 0.1 1008272
04:00−9wsw5119388 0.1 1007239
07:00−6wsw7149193 0.1 1005388
10:00−3wsw8148797 0.1 1003798
13:00−1sw81487100 0.1 1000912
16:000wsw101794100 0.8 9981167
19:000w91687100 0.2 9981015
22:00−2w6139390 0.3 1000587
5 march, fri
fri501:00−3wsw3892100 0.2 1000217
04:00−4w2494100 0.3 1001103
07:00−4nnw2397100 1.1 1001148
10:00−4nnw3595100 1.9 1003416
13:00−5nnw3591100 0.1 1004435
16:00−6nnw358795 0.1 1007378
19:00−12nw119212 0.0 100921
22:00−12w22939 0.0 101221
6 march, sat
sat601:00−13wsw228778 0.0 101221
04:00−13sw239384 0.0 101323
07:00−13sw2394100 0.0 101224
10:00−9wsw2593100 0.1 1013254
13:00−7nw4691100 0.1 1012504
16:00−7nw478899 0.1 1011574
19:00−12wnw479465 0.0 1012126
22:00−16wnw479435 0.0 1013146
7 march, sun
sun701:00−18wnw359763 0.0 101485
04:00−20w349668 0.1 101562
07:00−20wsw35985 0.0 101674
10:00−14sw47893 0.0 1016220
13:00−9ssw59770 0.0 1013559
16:00−8ssw7128821 0.1 1010859
19:00−7ssw81591100 0.3 1007793
22:00−6ssw81592100 0.9 10031052
8 march, mon
mon801:00−5ssw101789100 0.9 9981057
04:00−5sw91787100 1.0 996929
07:00−7w61385100 0.6 997508
10:00−7wsw6118350 0.6 999549
13:00−6wsw7118697 0.3 10001288
16:00−5w6107481 0.4 10011244
19:00−9w4108595 0.1 1004297
22:00−11wsw5128548 0.1 1007306